Flag for U.S.A. Weather past 2 weeks in Charlottesville, Virginia, U.S.A.

Now
32 °F

Overcast.


Feels Like: 29 °F
Forecast: 28 / 45 °F
Wind: 3 mph from Northeast

Location: Charlottesville-Albemarle Airport

Current Time: Dec 21, 2014 at 7:31:43 AM

Latest Report: Dec 21, 2014 at 6:53 AM


Visibility: 10 mi

Pressure: 30.31 "Hg

Humidity: 79%

Dew point: 26 °F

Location of CharlottesvilleLocation

Historic Weather in Charlottesville — Graph

°F

Charlottesville temperature yesterday

Maximum temperature yesterday: 37 °F (at 12:53 PM)
Minimum temperature yesterday: 25 °F (at 4:53 AM)
Average temperature yesterday: 32 °F

Past Weeks' High & Low Weather Summary

 TemperatureHumidityPressure
High60 °F (Dec 14, 2:53 PM)97% (Dec 6, 5:00 PM)30.55 "Hg (Dec 6, 5:00 PM)
Low25 °F (Dec 20, 4:53 AM)16% (Dec 11, 2:53 PM)29.85 "Hg (Dec 16, 3:53 PM)
Average41 °F61%30.10 "Hg
* Reported Dec 6 5:53 AM — Dec 21 5:53 AM, Charlottesville, Weather by CustomWeather, © 2014

Note: Actual official high and low records may vary slightly from our data, if they occured in-between our weather recording intervals... More about our weather records

Advertising

Charlottesville weather history for previous 24 hours

 ConditionsComfort  
Time TempWeatherWind HumidityBarometerVisibility
5:53 AM
Dec 21
32 °FOvercast.3 mph79%30.29 "Hg10 mi
4:53 AM32 °FOvercast.No wind75%30.28 "Hg10 mi
3:53 AM32 °FOvercast.No wind79%30.28 "Hg10 mi
2:53 AM33 °FOvercast.No wind75%30.29 "Hg10 mi
1:53 AM32 °FOvercast.No wind75%30.27 "Hg10 mi
12:53 AM33 °FOvercast.No wind72%30.27 "Hg10 mi
11:53 PM
Dec 20
33 °FOvercast.No wind72%30.27 "Hg10 mi
10:53 PM33 °FOvercast.No wind72%30.28 "Hg10 mi
9:53 PM33 °FOvercast.No wind72%30.28 "Hg10 mi
8:53 PM33 °FOvercast.No wind72%30.28 "Hg10 mi
7:53 PM33 °FOvercast.5 mph72%30.28 "Hg10 mi
6:53 PM36 °FOvercast.3 mph62%30.27 "Hg10 mi
5:53 PM36 °FMostly cloudy.3 mph62%30.27 "Hg10 mi
4:53 PM37 °FOvercast.3 mph60%30.25 "Hg10 mi
3:53 PM37 °FOvercast.3 mph60%30.24 "Hg10 mi
2:53 PM37 °FOvercast.5 mph60%30.23 "Hg10 mi
1:53 PM37 °FMostly cloudy.5 mph60%30.24 "Hg10 mi
12:53 PM37 °FOvercast.6 mph60%30.25 "Hg10 mi
11:53 AM36 °FPartly sunny.3 mph62%30.28 "Hg10 mi
10:53 AM33 °FPartly sunny.6 mph70%30.30 "Hg10 mi
9:53 AM32 °FPassing clouds.5 mph75%30.31 "Hg10 mi
8:53 AM30 °FSunny.No wind79%30.29 "Hg10 mi
7:53 AM28 °FSunny.7 mph81%30.31 "Hg10 mi
Weather by CustomWeather, © 2014

See weather overviewHow to use our weather pages